User: anonymous
Location: North Smoke Tower Site
(30.5430°N, 82.3390°W)
Time: 07:48:55
(UTC-04:00)
Language:

Cosmos 1980 Rocket - Orbit

View from above orbital plane
View from above orbital plane
View from above satellite
View from above satellite

Ground track
Ground track

The orbit data is extracted from the following two-line orbital elements,

1 19650U 88102B   14272.15047774  .00000279  00000-0  16661-3 0  3952
2 19650 070.9992 300.9582 0016301 255.4883 160.4108 14.15671981335590
Epoch (UTC): 29 September 2014 03:36:41
Eccentricity: 0.0016301
inclination: 70.9992°
perigee height: 828 km
apogee height: 852 km
right ascension of ascending node: 300.9582°
argument of perigee: 255.4883°
revolutions per day: 14.15671981
mean anomaly at epoch: 160.4108°
orbit number at epoch: 33559

The dashed part of the orbit path shows where the satellite is in the earth's shadow,  

DLR